Regional Weather Roundup
Issued by NWS

Home | Current Version | Previous Version | Graphics & Text | Print | Product List | Glossary On
Versions: 1 2 3 4 5 6 7 8 9 10 11 12 13 14 15 16 17 18 19 20 21 22 23 24 25 26 27 28 29 30 31 32 33 34 35 36 37 38 39 40 41 42 43 44 45 46 47 48 49 50
000
ASUS43 KMKX 280711
RWRWI

WISCONSIN REGIONAL WEATHER ROUNDUP
NATIONAL WEATHER SERVICE MILWAUKEE/SULLIVAN WI
200 AM CDT MON JUL 28 2014

NOTE: "FAIR" INDICATES FEW OR NO CLOUDS BELOW 12,000 FEET WITH NO
SIGNIFICANT WEATHER AND/OR OBSTRUCTIONS TO VISIBILITY.

WIZ001-002-006>008-014>016-023>028-280800-
NORTHWEST WISCONSIN

CITY           SKY/WX    TMP DP  RH WIND       PRES   REMARKS
SUPERIOR ARPT  CLOUDY    52  52  99 CALM      30.12R
ASHLAND        MOCLDY    50  49  96 SW6       30.11S
HAYWARD        PTCLDY    47  46  97 CALM      30.13R
SIREN          MOCLDY    55  54  95 NW3       30.13R
RICE LAKE      PTCLDY    55  53  94 CALM      30.14R
LADYSMITH      CLEAR     55  52  90 NW7       30.13R
EAU CLAIRE     CLOUDY    59  53  80 N5        30.10S
MENOMONIE      SUNNY     56  53  90 CALM      30.12S
NEW RICHMOND   CLOUDY    58  56  94 NW3       30.14S
OSCEOLA        CLOUDY    59  58  96 CALM      30.16S
$$

WIZ003>005-009-010-017-018-280800-
NORTH CENTRAL WISCONSIN

CITY           SKY/WX    TMP DP  RH WIND       PRES   REMARKS
WOODRUFF       CLEAR     50  48  93 CALM      30.08R
RHINELANDER    CLEAR     51  49  92 NW5       30.07S
EAGLE RIVER    CLEAR     49  48  97 N5        30.06S
LAND O LAKES   CLEAR     49  47  93 CALM      30.07S
PHILLIPS       CLEAR     49  48  97 NW3       30.09S
TOMAHAWK       CLEAR     49  47  95 NW3       30.08S
MEDFORD        CLEAR     50  49  96 NW6       30.09R
MERRILL        CLEAR     50  50  98 NW7       30.07S
$$

WIZ029-030-035-036-043>047-280800-
CENTRAL WISCONSIN

CITY           SKY/WX    TMP DP  RH WIND       PRES   REMARKS
WAUSAU         CLEAR     54  51  90 NW10      30.05S
MOSINEE        CLEAR     52  50  93 NW7       30.07S
MARSHFIELD     CLEAR     53  51  93 NW9       30.08R
STEVENS POINT  CLEAR     53  49  89 NW5       30.06S
WAUPACA        CLEAR     57  52  84 NW6       30.03S
WAUTOMA        CLEAR     57  52  84 N7        30.05R
WISC RAPIDS    CLEAR     55  51  86 MISG      30.08R
CAMP DOUGLAS   CLEAR     54  53  98 NW6       30.07R
$$

WIZ011>013-019>022-031-037>040-048>050-280800-
NORTHEAST WISCONSIN

CITY           SKY/WX    TMP DP  RH WIND       PRES   REMARKS
ANTIGO         CLEAR     48  47  96 CALM      30.05S
STURGEON BAY   CLEAR     55  46  71 N17G24    29.98R
GREEN BAY      CLEAR     56  48  74 N14G21    30.00R
MANITOWOC      CLEAR     57  49  74 N10       29.97R
APPLETON       CLEAR     54  48  82 N9        30.01S
CLINTONVILLE   CLEAR     55  50  82 NW7       30.03R
OSHKOSH        CLEAR     58  51  78 N13       30.00S
$$

WIZ032>034-041-042-053>061-280800-
SOUTHWEST WISCONSIN

CITY           SKY/WX    TMP DP  RH WIND       PRES   REMARKS
LA CROSSE      CLEAR     59  54  83 N7        30.09R
SPARTA         CLEAR     55  52  90 N6        30.10R
VIROQUA        FAIR      55  55  97 N6        30.08S
BOSCOBEL       CLEAR     61  54  77 N5        30.06R
PRAIRIE DU CHI CLEAR     62  53  71 N7        30.07R
PLATTEVILLE    FAIR      60  55  84 N9        30.06R
$$

WIZ056-057-062-063-064-067-068-280800-
SOUTH CENTRAL WISCONSIN

CITY           SKY/WX    TMP DP  RH WIND       PRES   REMARKS
BARABOO/DELLS  CLEAR     57  51  80 NW7       30.04S
LONE ROCK      CLEAR     63  54  72 NW7       30.05R
WATERTOWN      CLEAR     57  53  85 NW8       29.99R
MADISON        CLEAR     59  53  80 N8        30.02R
MIDDLETON      FAIR      59  55  85 N6        30.03R
MONROE         CLEAR     59  55  88 N10       30.01R
JANESVILLE     CLEAR     61  52  72 N8        29.99R
$$

WIZ051-052-058>065-066-070>072-280800-
SOUTHEAST WISCONSIN

CITY           SKY/WX    TMP DP  RH WIND       PRES   REMARKS
MILWAUKEE      PTCLDY    60  51  72 N9        29.95S
WAUKESHA       CLEAR     57  48  72 N10       29.98S
MILWAUKEE/TIMM CLEAR     57  50  77 N9        29.97S
RACINE         CLEAR     61  50  67 N12G21    29.96R
BURLINGTON     CLEAR     58  49  74 N9        29.97R
KENOSHA        PTCLDY    59  53  80 NW7       29.95S
FOND DU LAC    CLEAR     58  50  75 NW10      29.99S
SHEBOYGAN      CLEAR     57  49  74 N12       29.96S
WEST BEND      CLEAR     57  46  67 N8        29.97S
JUNEAU         CLEAR     56  51  84 NW8       30.01R
$$

LSZ147-162-280800-
LAKE SUPERIOR

STATION/POSITION TIME  TEMP    WIND        PRES    WAVE
                       AIR SEA DIR/SP/G            HT/PER
                 (UTC) (F)     (DEG/KT/KT) (MB)    (FT/S)
W MID LAKE BUOY  0650   48 42  290/  8/  8 1018.5F   1/ 4
PORT WING        0600   54     120/  1/  4 1019.3S
SAXON HARBOR     0640          200/  3/  6 1019.0S
$$

LMZ867-665-643>646-280800-
LAKE MICHIGAN

STATION/POSITION TIME  TEMP    WIND        PRES    WAVE
                       AIR SEA DIR/SP/G            HT/PER
                 (UTC) (F)     (DEG/KT/KT) (MB)    (FT/S)
N MID LAKE BUOY  0650   55 54  350/ 21/ 27 1012.9R   4/ 5
NORTHPORT PIER   0600   57     350/ 19/ 23 1014.9R
KEWAUNEE LAKESHO 0600   58     340/ 11/ 16 1014.9R
SHEBOYGAN LAKESH 0700   60     340/ 18/ 22 1014.5R
PORT WASHINGTON  0600   62     340/  6/ 10 1014.6R
ATWATER BUOY     0700   61     340/ 12     1015.0S
MILWAUKEE LAKESH 0600   62     340/ 10/ 14   N/A
S MID LAKE BUOY  0650   61 60  340/ 23/ 29 1011.8R   7/ 7
KENOSHA   LAKESH 0700   62     350/ 13/ 19 1013.5R
$$

TC  - TEMPERATURE IN CELSIUS
VSB - VISIBILITY IN STATUTE MILES
WCI - WIND CHILL INDEX
HX  - HEAT INDEX




USA.gov is the U.S. government's official web portal to all federal, state and local government web resources and services.